• Processing (Info)

  • MPEC 2014-O17 : 2014 NF64

    The following Minor Planet Electronic Circular may be linked-to from your own Web pages, but must not otherwise be redistributed electronically.

    A form allowing access to any MPEC is at the bottom of this page.


    Read MPEC 2014-O16 Read MPEC 2014-O18


    M.P.E.C. 2014-O17                                Issued 2014 July 21, 14:09 UT
    
         The Minor Planet Electronic Circulars contain information on unusual
             minor planets and routine data on comets.  They are published
       on behalf of Commission 20 of the International Astronomical Union by the
              Minor Planet Center, Smithsonian Astrophysical Observatory,
                              Cambridge, MA 02138, U.S.A.
    
                 Prepared using the Tamkin Foundation Computer Network
    
                                  MPC@CFA.HARVARD.EDU
                URL https://www.minorplanetcenter.net/    ISSN 1523-6714
    
                                       2014 NF64
    
    Observations:
         K14N64F* C2014 07 02.32634 16 39 35.100-11 27 04.54         21.2 wLEO017F51
         K14N64F  C2014 07 02.33896 16 39 34.028-11 27 05.59         21.4 wLEO017F51
         K14N64F  C2014 07 02.35158 16 39 32.919-11 27 06.66         21.1 wLEO017F51
         K14N64F  C2014 07 02.36416 16 39 31.888-11 27 07.50         21.2 wLEO017F51
         K14N64F KC2014 07 04.18977916 37 02.66 -11 29 50.5          21.0 VrEO017H21
         K14N64F KC2014 07 04.20228116 37 01.64 -11 29 51.8          20.8 VrEO017H21
         K14N64F KC2014 07 04.21524416 37 00.59 -11 29 52.8          20.6 VrEO017H21
         K14N64F  C2014 07 04.33470 16 36 51.07 -11 30 03.0          22.1 RLEO017F51
         K14N64F  C2014 07 04.36057 16 36 48.92 -11 30 05.4          22.2 RLEO017F51
         K14N64F  C2014 07 04.37351 16 36 47.86 -11 30 06.7          21.5 RLEO017F51
         K14N64F =C2014 07 18.32350 16 20 32.68 -12 05 50.0          20.8 RtEO017568
         K14N64F =C2014 07 18.32476 16 20 32.60 -12 05 50.3          20.7 RtEO017568
         K14N64F =C2014 07 18.32601 16 20 32.53 -12 05 50.5          20.7 RtEO017568
         K14N64F KC2014 07 21.20885 16 17 55.44 -12 16 31.8          20.8 RoEO017291
         K14N64F KC2014 07 21.21502 16 17 55.10 -12 16 33.2                oEO017291
         K14N64F KC2014 07 21.22045 16 17 54.81 -12 16 34.5                oEO017291
    
    Observer details:
    291 LPL/Spacewatch II.  Observer R. S. McMillan.  1.8-m f/2.7 reflector + CCD.
    568 Mauna Kea.  Observers R. J. Wainscoat, D. Woodworth.  Measurers P. Veres,
        R. J. Wainscoat.  3.6-m Canada-France-Hawaii Telescope + CCD.
    F51 Pan-STARRS 1, Haleakala.  Observers N. Primak, A. Schultz, T. Goggia,
        M. Willman.  Measurer P. Veres.  1.8-m Ritchey-Chretien + CCD.
    H21 Astronomical Research Observatory, Westfield.  Observer R. Holmes.
        Measurers S. Foglia, L. Buzzi, T. Linder, T. Lister, T. Vorobjov.  0.81-m
        f/4.0 astrograph + CCD.
    
    Orbital elements:
    2014 NF64                                                Earth MOID = 0.0631 AU
    Epoch 2014 May 23.0 TT = JDT 2456800.5                  MPC
    M 317.61397              (2000.0)            P               Q
    n   0.20279138     Peri.  258.34010     +0.90188541     -0.41227939
    a   2.8692588      Node   125.87681     +0.43163053     +0.84815167
    e   0.7076014      Incl.    9.15723     +0.01725656     +0.33266266
    P   4.86           H   18.2           G   0.15           U   6
    Residuals in seconds of arc
    140702 F51  0.0   0.0     140704 H21  0.6+  0.1+    140718 568  0.2-  0.2+
    140702 F51  0.1+  0.0     140704 F51  0.1-  0.1-    140721 291  0.1+  0.1-
    140702 F51  0.4-  0.0     140704 F51  0.1-  0.0     140721 291  0.0   0.0
    140702 F51  0.2+  0.1+    140704 F51  0.1+  0.1-    140721 291  0.0   0.1-
    140704 H21  0.1+  0.0     140718 568  0.2-  0.2+
    140704 H21  0.3+  0.1-    140718 568  0.2-  0.1+
    
    Ephemeris:
    2014 NF64                a,e,i = 2.87, 0.71, 9                   q = 0.8390
    Date    TT    R. A. (2000) Decl.     Delta      r     Elong.  Phase     V
    2014 06 21    16 55 56.9 -11 19 54   1.3875  2.3717   161.0     8.0    21.3
    ...
    2014 07 06    16 34 38.8 -11 32 52   1.3408  2.2429   143.8    15.5    21.4
    ...
    2014 07 14    16 24 59.5 -11 51 53   1.3367  2.1722   134.3    19.6    21.5
    ...
    2014 07 20    16 18 59.4 -12 11 51   1.3410  2.1184   127.4    22.4    21.5
    2014 07 21    16 18 06.4 -12 15 38   1.3422  2.1093   126.3    22.8    21.5
    2014 07 22    16 17 15.5 -12 19 34   1.3435  2.1002   125.2    23.3    21.6
    ...
    2014 07 28    16 12 57.1 -12 45 54   1.3540  2.0453   118.7    25.8    21.6
    ...
    2014 08 05    16 09 22.6 -13 28 00   1.3725  1.9709   110.4    28.8    21.6
    ...
    2014 08 20    16 09 28.9 -15 05 48   1.4120  1.8279    96.5    33.4    21.7
    
    A. U. Tomatic                (C) Copyright 2014 MPC           M.P.E.C. 2014-O17
    

    Read MPEC 2014-O16 Read MPEC 2014-O18


    MPEC number:

    Enter an MPEC number in one of the following forms:

    • 1997-B01 (the full form)
    • J97B01 (the packed version of the full form)
    • B01 (the abbreviated form)